Station Historical Data
Daily Summary for May 6, 2017 Units:  English    Metric   Both
Next Day »
Daily Weekly Monthly Yearly Custom
  High: Low: Average:
Temperature: 54.3 °F 43.5 °F 49.2 °F
Dew Point: 45.7 °F 40.2 °F 43 °F
Humidity: 89% 64% 80%
Wind Speed: 12.0mph 0.0mph 1mph
Wind Gust: 17.0mph - -
Wind- - South
Pressure: 29.77 in 29.69 in -
Precipitation: 0.00 in    
Historical Graphs
 
 
Tabular Data for May 6, 2017
Time Temperature Dew Point Pressure Wind Wind Speed Wind Gust Humidity Rainfall Rate (Hourly) solar Conditions
00:04 52.9 °F 45.5 °F 29.76 in Calm   13.0 mph 76% 0.00 in 0.00 W/m2
00:09 52.6 °F 44.9 °F 29.76 in South 5.0 mph 11.0 mph 75% 0.00 in 0.00 W/m2
00:14 52.4 °F 45.1 °F 29.76 in South 1.0 mph 9.0 mph 76% 0.00 in 0.00 W/m2
00:19 52.1 °F 44.8 °F 29.76 in South 11.0 mph 12.0 mph 76% 0.00 in 0.00 W/m2
00:24 51.9 °F 44.6 °F 29.76 in South 5.0 mph 11.0 mph 76% 0.00 in 0.00 W/m2
00:29 51.7 °F 44.4 °F 29.76 in SSE 7.0 mph 11.0 mph 76% 0.00 in 0.00 W/m2
00:34 51.5 °F 44.2 °F 29.76 in SSE 2.0 mph 11.0 mph 76% 0.00 in 0.00 W/m2
00:39 51.3 °F 44.0 °F 29.76 in Calm   10.0 mph 76% 0.00 in 0.00 W/m2
00:44 51.2 °F 43.9 °F 29.75 in SSE 10.0 mph 10.0 mph 76% 0.00 in 0.00 W/m2
00:49 51.0 °F 44.0 °F 29.75 in Calm   9.0 mph 77% 0.00 in 0.00 W/m2
00:54 50.8 °F 43.9 °F 29.75 in SE 7.0 mph 10.0 mph 77% 0.00 in 0.00 W/m2
00:59 50.6 °F 44.0 °F 29.75 in SE 8.0 mph 10.0 mph 78% 0.00 in 0.00 W/m2
01:04 50.4 °F 44.1 °F 29.74 in SE 7.0 mph 9.0 mph 79% 0.00 in 0.00 W/m2
01:10 50.3 °F 44.0 °F 29.74 in SE 1.0 mph 14.0 mph 79% 0.00 in 0.00 W/m2
01:15 50.2 °F 44.0 °F 29.74 in SE 12.0 mph 13.0 mph 79% 0.00 in 0.00 W/m2
01:20 50.1 °F 43.8 °F 29.74 in SE 8.0 mph 14.0 mph 79% 0.00 in 0.00 W/m2
01:25 50.0 °F 45.0 °F 29.73 in SE 7.0 mph 14.0 mph 83% 0.00 in 0.00 W/m2
01:30 50.0 °F 44.1 °F 29.73 in SE 5.0 mph 16.0 mph 80% 0.00 in 0.00 W/m2
01:35 49.9 °F 44.0 °F 29.72 in SE 5.0 mph 15.0 mph 80% 0.00 in 0.00 W/m2
01:40 49.9 °F 44.3 °F 29.72 in SE 4.0 mph 17.0 mph 81% 0.00 in 0.00 W/m2
01:45 49.9 °F 44.3 °F 29.72 in SE 8.0 mph 15.0 mph 81% 0.00 in 0.00 W/m2
01:50 49.9 °F 44.3 °F 29.71 in ESE 8.0 mph 13.0 mph 81% 0.00 in 0.00 W/m2
01:55 50.0 °F 44.7 °F 29.71 in SE 1.0 mph 12.0 mph 82% 0.00 in 0.00 W/m2
02:00 50.0 °F 44.7 °F 29.71 in SE 5.0 mph 11.0 mph 82% 0.00 in 0.00 W/m2
02:05 50.0 °F 44.7 °F 29.71 in Calm   1.0 mph 82% 0.00 in 0.00 W/m2
02:10 50.0 °F 44.7 °F 29.71 in Calm     82% 0.00 in 0.00 W/m2
02:15 50.0 °F 44.7 °F 29.71 in Calm     82% 0.00 in 0.00 W/m2
02:20 50.0 °F 44.7 °F 29.71 in Calm     82% 0.00 in 0.00 W/m2
02:25 49.9 °F 44.6 °F 29.71 in Calm     82% 0.00 in 0.00 W/m2
02:30 49.9 °F 44.6 °F 29.71 in Calm     82% 0.00 in 0.00 W/m2
02:35 49.8 °F 44.5 °F 29.71 in Calm     82% 0.00 in 0.00 W/m2
02:40 49.7 °F 44.4 °F 29.71 in Calm     82% 0.00 in 0.00 W/m2
02:45 49.7 °F 44.4 °F 29.71 in Calm     82% 0.00 in 0.00 W/m2
02:50 49.6 °F 44.3 °F 29.71 in Calm     82% 0.00 in 0.00 W/m2
02:55 49.5 °F 44.2 °F 29.71 in Calm     82% 0.00 in 0.00 W/m2
03:00 49.4 °F 44.1 °F 29.71 in Calm     82% 0.00 in 0.00 W/m2
03:05 49.3 °F 44.0 °F 29.71 in Calm     82% 0.00 in 0.00 W/m2
03:10 49.1 °F 43.8 °F 29.71 in Calm     82% 0.00 in 0.00 W/m2
03:15 48.9 °F 43.7 °F 29.70 in Calm     82% 0.00 in 0.00 W/m2
03:20 48.7 °F 43.5 °F 29.70 in Calm     82% 0.00 in 0.00 W/m2
03:25 48.4 °F 43.5 °F 29.70 in Calm     83% 0.00 in 0.00 W/m2
03:30 48.2 °F 43.3 °F 29.70 in Calm     83% 0.00 in 0.00 W/m2
03:35 48.1 °F 43.5 °F 29.70 in Calm     84% 0.00 in 0.00 W/m2
03:40 47.9 °F 43.3 °F 29.70 in Calm     84% 0.00 in 0.00 W/m2
03:45 47.8 °F 43.2 °F 29.69 in Calm     84% 0.00 in 0.00 W/m2
03:50 47.6 °F 43.3 °F 29.69 in Calm     85% 0.00 in 0.00 W/m2
03:55 47.4 °F 43.1 °F 29.69 in Calm     85% 0.00 in 0.00 W/m2
04:00 47.3 °F 43.0 °F 29.69 in Calm     85% 0.00 in 0.00 W/m2
04:05 47.2 °F 42.9 °F 29.69 in Calm     85% 0.00 in 0.00 W/m2
04:10 47.1 °F 43.1 °F 29.70 in Calm     86% 0.00 in 0.00 W/m2
04:15 47.0 °F 42.7 °F 29.70 in Calm     85% 0.00 in 0.00 W/m2
04:16 47.1 °F 42.8 °F 29.70 in Calm     85% 0.00 in 0.00 W/m2
04:21 47.0 °F 43.0 °F 29.70 in Calm     86% 0.00 in 0.00 W/m2
04:26 47.0 °F 43.0 °F 29.70 in Calm     86% 0.00 in 0.00 W/m2
04:31 46.9 °F 42.9 °F 29.70 in Calm     86% 0.00 in 0.00 W/m2
04:36 46.9 °F 42.9 °F 29.70 in Calm     86% 0.00 in 0.00 W/m2
04:41 46.8 °F 42.8 °F 29.70 in Calm     86% 0.00 in 0.00 W/m2
04:46 46.7 °F 43.0 °F 29.70 in Calm     87% 0.00 in 0.00 W/m2
04:51 46.7 °F 43.0 °F 29.70 in Calm   4.0 mph 87% 0.00 in 0.00 W/m2
04:56 46.7 °F 43.0 °F 29.70 in Calm     87% 0.00 in 0.00 W/m2
05:01 46.6 °F 42.9 °F 29.70 in Calm     87% 0.00 in 0.00 W/m2
05:06 46.5 °F 42.8 °F 29.70 in Calm     87% 0.00 in 0.00 W/m2
05:11 46.4 °F 42.8 °F 29.70 in Calm     87% 0.00 in 0.00 W/m2
05:16 46.3 °F 42.7 °F 29.70 in Calm     87% 0.00 in 0.00 W/m2
05:21 46.1 °F 42.5 °F 29.70 in Calm     87% 0.00 in 0.00 W/m2
05:26 46.0 °F 42.3 °F 29.70 in Calm     87% 0.00 in 0.00 W/m2
05:31 45.8 °F 42.2 °F 29.70 in Calm     87% 0.00 in 0.00 W/m2
05:36 45.6 °F 42.0 °F 29.70 in Calm     87% 0.00 in 0.00 W/m2
05:41 45.5 °F 41.9 °F 29.70 in Calm     87% 0.00 in 0.00 W/m2
05:46 45.2 °F 41.6 °F 29.70 in Calm     87% 0.00 in 0.00 W/m2
05:51 45.1 °F 41.5 °F 29.70 in Calm     87% 0.00 in 0.00 W/m2
05:56 45.0 °F 41.4 °F 29.71 in Calm     87% 0.00 in 0.00 W/m2
06:01 44.8 °F 41.2 °F 29.71 in Calm     87% 0.00 in 0.00 W/m2
06:06 44.6 °F 41.0 °F 29.71 in Calm     87% 0.00 in 0.00 W/m2
06:11 44.4 °F 40.8 °F 29.71 in Calm     87% 0.00 in 0.00 W/m2
06:16 44.4 °F 40.8 °F 29.71 in Calm     87% 0.00 in 5.00 W/m2
06:21 44.3 °F 41.0 °F 29.71 in Calm     88% 0.00 in 7.00 W/m2
06:26 44.3 °F 41.0 °F 29.71 in Calm     88% 0.00 in 9.00 W/m2
06:31 44.3 °F 41.0 °F 29.71 in Calm     88% 0.00 in 11.00 W/m2
06:36 44.2 °F 40.9 °F 29.71 in Calm     88% 0.00 in 11.00 W/m2
06:41 44.2 °F 40.9 °F 29.71 in Calm     88% 0.00 in 11.00 W/m2
06:47 44.1 °F 40.8 °F 29.71 in Calm     88% 0.00 in 12.00 W/m2
06:52 44.1 °F 40.8 °F 29.71 in Calm     88% 0.00 in 12.00 W/m2
06:57 44.0 °F 40.7 °F 29.72 in Calm     88% 0.00 in 12.00 W/m2
06:58 44.0 °F 40.7 °F 29.72 in Calm     88% 0.00 in 12.00 W/m2
07:03 43.9 °F 40.6 °F 29.72 in Calm     88% 0.00 in 16.00 W/m2
07:08 43.9 °F 40.6 °F 29.72 in Calm     88% 0.00 in 21.00 W/m2
07:13 43.9 °F 40.6 °F 29.72 in Calm     88% 0.00 in 28.00 W/m2
07:18 43.9 °F 40.6 °F 29.72 in Calm     88% 0.00 in 23.00 W/m2
07:23 43.8 °F 40.5 °F 29.72 in Calm     88% 0.00 in 28.00 W/m2
07:28 43.8 °F 40.8 °F 29.72 in Calm     89% 0.00 in 23.00 W/m2
07:33 43.9 °F 40.9 °F 29.72 in Calm     89% 0.00 in 26.00 W/m2
07:38 43.9 °F 40.9 °F 29.72 in Calm     89% 0.00 in 44.00 W/m2
07:43 43.9 °F 40.9 °F 29.72 in Calm     89% 0.00 in 40.00 W/m2
07:49 43.8 °F 40.8 °F 29.72 in Calm   3.0 mph 89% 0.00 in 88.00 W/m2
07:54 43.7 °F 40.7 °F 29.72 in South 2.0 mph 3.0 mph 89% 0.00 in 81.00 W/m2
07:59 43.5 °F 40.2 °F 29.72 in Calm     88% 0.00 in 90.00 W/m2
08:04 43.5 °F 40.5 °F 29.72 in Calm     89% 0.00 in 102.00 W/m2
08:09 43.6 °F 40.6 °F 29.72 in Calm   5.0 mph 89% 0.00 in 149.00 W/m2
08:14 43.6 °F 40.6 °F 29.72 in Calm     89% 0.00 in 197.00 W/m2
08:19 43.8 °F 40.8 °F 29.72 in Calm     89% 0.00 in 462.00 W/m2
08:24 43.9 °F 40.9 °F 29.72 in South 1.0 mph 2.0 mph 89% 0.00 in 294.00 W/m2
08:29 44.1 °F 41.1 °F 29.72 in Calm   2.0 mph 89% 0.00 in 142.00 W/m2
08:34 44.2 °F 41.2 °F 29.72 in Calm   4.0 mph 89% 0.00 in 167.00 W/m2
08:39 44.4 °F 41.4 °F 29.72 in Calm   5.0 mph 89% 0.00 in 181.00 W/m2
08:44 44.5 °F 41.5 °F 29.73 in Calm   4.0 mph 89% 0.00 in 250.00 W/m2
08:49 44.6 °F 41.6 °F 29.72 in Calm     89% 0.00 in 234.00 W/m2
08:54 44.6 °F 41.6 °F 29.73 in South 1.0 mph 5.0 mph 89% 0.00 in 243.00 W/m2
08:59 44.7 °F 41.4 °F 29.73 in Calm   5.0 mph 88% 0.00 in 232.00 W/m2
09:04 44.8 °F 41.5 °F 29.73 in Calm   4.0 mph 88% 0.00 in 262.00 W/m2
09:09 45.0 °F 41.7 °F 29.73 in Calm   5.0 mph 88% 0.00 in 330.00 W/m2
09:14 45.2 °F 41.6 °F 29.73 in Calm   5.0 mph 87% 0.00 in 345.00 W/m2
09:19 45.4 °F 41.8 °F 29.73 in SSE 6.0 mph 6.0 mph 87% 0.00 in 434.00 W/m2
09:24 45.6 °F 42.0 °F 29.73 in SSE 4.0 mph 6.0 mph 87% 0.00 in 364.00 W/m2
09:29 45.8 °F 41.9 °F 29.73 in Calm   2.0 mph 86% 0.00 in 478.00 W/m2
09:34 46.0 °F 42.0 °F 29.72 in Calm   1.0 mph 86% 0.00 in 483.00 W/m2
09:39 46.2 °F 42.0 °F 29.72 in Calm   1.0 mph 85% 0.00 in 461.00 W/m2
09:44 46.4 °F 42.1 °F 29.72 in SSE 1.0 mph 5.0 mph 85% 0.00 in 432.00 W/m2
09:49 46.7 °F 42.1 °F 29.72 in Calm     84% 0.00 in 473.00 W/m2
09:54 46.9 °F 42.3 °F 29.72 in Calm     84% 0.00 in 461.00 W/m2
09:59 47.2 °F 42.3 °F 29.73 in SSE 2.0 mph 6.0 mph 83% 0.00 in 621.00 W/m2
10:04 47.4 °F 42.2 °F 29.73 in Calm     82% 0.00 in 591.00 W/m2
10:09 47.7 °F 42.5 °F 29.72 in Calm   4.0 mph 82% 0.00 in 471.00 W/m2
10:14 47.9 °F 42.4 °F 29.73 in SSE 4.0 mph 8.0 mph 81% 0.00 in 524.00 W/m2
10:19 48.2 °F 42.3 °F 29.72 in SSE 6.0 mph 6.0 mph 80% 0.00 in 469.00 W/m2
10:24 48.4 °F 42.5 °F 29.72 in Calm   8.0 mph 80% 0.00 in 461.00 W/m2
10:29 48.7 °F 42.5 °F 29.73 in Calm   5.0 mph 79% 0.00 in 501.00 W/m2
10:34 48.8 °F 42.9 °F 29.73 in Calm   5.0 mph 80% 0.00 in 403.00 W/m2
10:39 49.0 °F 43.1 °F 29.73 in SSW 4.0 mph 4.0 mph 80% 0.00 in 390.00 W/m2
10:44 49.0 °F 43.1 °F 29.73 in Calm   7.0 mph 80% 0.00 in 404.00 W/m2
10:49 49.0 °F 43.1 °F 29.73 in Calm   6.0 mph 80% 0.00 in 448.00 W/m2
10:55 49.0 °F 42.8 °F 29.74 in Calm   5.0 mph 79% 0.00 in 471.00 W/m2
11:00 49.0 °F 43.1 °F 29.74 in Calm   6.0 mph 80% 0.00 in 513.00 W/m2
11:05 49.1 °F 43.2 °F 29.74 in SSW 6.0 mph 6.0 mph 80% 0.00 in 715.00 W/m2
11:10 49.2 °F 43.0 °F 29.74 in Calm   7.0 mph 79% 0.00 in 527.00 W/m2
11:15 49.3 °F 42.7 °F 29.74 in Calm   6.0 mph 78% 0.00 in 438.00 W/m2
11:20 49.4 °F 42.8 °F 29.75 in WSW 2.0 mph 4.0 mph 78% 0.00 in 682.00 W/m2
11:25 49.4 °F 42.8 °F 29.75 in WSW 3.0 mph 7.0 mph 78% 0.00 in 459.00 W/m2
11:30 49.4 °F 42.8 °F 29.75 in WSW 3.0 mph 7.0 mph 78% 0.00 in 513.00 W/m2
11:35 49.5 °F 42.9 °F 29.74 in Calm   7.0 mph 78% 0.00 in 536.00 W/m2
11:40 49.6 °F 42.7 °F 29.74 in Calm   7.0 mph 77% 0.00 in 578.00 W/m2
11:45 49.6 °F 43.0 °F 29.74 in WSW 3.0 mph 6.0 mph 78% 0.00 in 666.00 W/m2
11:50 49.8 °F 43.2 °F 29.74 in SW 5.0 mph 9.0 mph 78% 0.00 in 744.00 W/m2
11:55 50.1 °F 43.2 °F 29.74 in Calm   6.0 mph 77% 0.00 in 649.00 W/m2
12:00 50.3 °F 43.0 °F 29.75 in SW 1.0 mph 4.0 mph 76% 0.00 in 738.00 W/m2
12:05 50.5 °F 42.9 °F 29.74 in Calm   7.0 mph 75% 0.00 in 647.00 W/m2
12:10 50.7 °F 43.1 °F 29.74 in NW 3.0 mph 10.0 mph 75% 0.00 in 635.00 W/m2
12:15 50.9 °F 42.9 °F 29.74 in Calm   7.0 mph 74% 0.00 in 529.00 W/m2
12:20 51.0 °F 43.0 °F 29.74 in SW 3.0 mph 8.0 mph 74% 0.00 in 526.00 W/m2
12:25 51.2 °F 42.5 °F 29.74 in Calm   6.0 mph 72% 0.00 in 520.00 W/m2
12:30 51.2 °F 42.5 °F 29.74 in Calm   9.0 mph 72% 0.00 in 540.00 W/m2
12:31 51.2 °F 42.5 °F 29.74 in Calm     72% 0.00 in 529.00 W/m2
12:36 51.2 °F 42.5 °F 29.74 in SSW 7.0 mph 12.0 mph 72% 0.00 in 540.00 W/m2
12:41 51.3 °F 41.9 °F 29.74 in Calm     70% 0.00 in 475.00 W/m2
12:46 51.3 °F 41.9 °F 29.74 in Calm   2.0 mph 70% 0.00 in 448.00 W/m2
12:51 51.3 °F 41.9 °F 29.75 in SW 2.0 mph 3.0 mph 70% 0.00 in 438.00 W/m2
12:56 51.2 °F 41.8 °F 29.75 in South 6.0 mph 8.0 mph 70% 0.00 in 385.00 W/m2
13:01 51.2 °F 41.8 °F 29.76 in SSW 2.0 mph 2.0 mph 70% 0.00 in 350.00 W/m2
13:06 51.3 °F 41.9 °F 29.76 in Calm     70% 0.00 in 355.00 W/m2
13:11 51.3 °F 41.9 °F 29.76 in Calm   4.0 mph 70% 0.00 in 269.00 W/m2
13:16 51.3 °F 41.9 °F 29.76 in Calm     70% 0.00 in 250.00 W/m2
13:21 51.2 °F 41.8 °F 29.76 in Calm     70% 0.00 in 262.00 W/m2
13:26 51.1 °F 42.0 °F 29.75 in SW 2.0 mph 2.0 mph 71% 0.00 in 262.00 W/m2
13:31 50.9 °F 41.5 °F 29.75 in SW 4.0 mph 7.0 mph 70% 0.00 in 221.00 W/m2
13:36 50.7 °F 41.7 °F 29.75 in Calm     71% 0.00 in 236.00 W/m2
13:41 50.4 °F 41.7 °F 29.75 in Calm     72% 0.00 in 258.00 W/m2
13:46 50.3 °F 41.6 °F 29.75 in Calm     72% 0.00 in 290.00 W/m2
13:51 50.2 °F 41.5 °F 29.76 in Calm     72% 0.00 in 350.00 W/m2
13:56 50.2 °F 41.5 °F 29.76 in Calm     72% 0.00 in 357.00 W/m2
14:01 50.2 °F 41.5 °F 29.75 in Calm     72% 0.00 in 448.00 W/m2
14:07 50.3 °F 41.6 °F 29.75 in Calm     72% 0.00 in 450.00 W/m2
14:12 50.4 °F 42.1 °F 29.75 in Calm     73% 0.00 in 552.00 W/m2
14:17 50.6 °F 42.6 °F 29.75 in Calm     74% 0.00 in 619.00 W/m2
14:22 50.9 °F 42.6 °F 29.75 in Calm     73% 0.00 in 436.00 W/m2
14:27 51.2 °F 42.5 °F 29.76 in SW 3.0 mph 12.0 mph 72% 0.00 in 446.00 W/m2
14:32 51.4 °F 42.0 °F 29.75 in SSW 6.0 mph 6.0 mph 70% 0.00 in 591.00 W/m2
14:37 51.6 °F 41.4 °F 29.76 in SSW 3.0 mph 6.0 mph 68% 0.00 in 617.00 W/m2
14:42 51.9 °F 41.7 °F 29.76 in South 2.0 mph 6.0 mph 68% 0.00 in 554.00 W/m2
14:47 52.2 °F 42.0 °F 29.76 in WSW 5.0 mph 6.0 mph 68% 0.00 in 554.00 W/m2
14:52 52.5 °F 41.9 °F 29.76 in SSE 4.0 mph 8.0 mph 67% 0.00 in 947.00 W/m2
14:57 52.8 °F 41.8 °F 29.76 in Calm   8.0 mph 66% 0.00 in 469.00 W/m2
15:02 53.0 °F 41.6 °F 29.76 in Calm     65% 0.00 in 410.00 W/m2
15:07 53.1 °F 41.7 °F 29.76 in WSW 3.0 mph 6.0 mph 65% 0.00 in 330.00 W/m2
15:12 53.0 °F 42.0 °F 29.76 in SSW 1.0 mph 4.0 mph 66% 0.00 in 357.00 W/m2
15:17 53.1 °F 41.7 °F 29.76 in Calm   2.0 mph 65% 0.00 in 403.00 W/m2
15:22 53.0 °F 41.6 °F 29.76 in Calm   5.0 mph 65% 0.00 in 427.00 W/m2
15:27 52.9 °F 41.5 °F 29.75 in SSW 1.0 mph 4.0 mph 65% 0.00 in 499.00 W/m2
15:32 52.9 °F 41.5 °F 29.76 in SSW 7.0 mph 7.0 mph 65% 0.00 in 383.00 W/m2
15:37 52.9 °F 41.9 °F 29.76 in SSW 3.0 mph 4.0 mph 66% 0.00 in 352.00 W/m2
15:43 53.0 °F 41.2 °F 29.76 in Calm     64% 0.00 in 295.00 W/m2
15:48 53.1 °F 41.7 °F 29.76 in Calm     65% 0.00 in 316.00 W/m2
15:53 53.1 °F 42.5 °F 29.76 in SW 1.0 mph 2.0 mph 67% 0.00 in 411.00 W/m2
15:58 53.2 °F 42.5 °F 29.75 in Calm   3.0 mph 67% 0.00 in 476.00 W/m2
16:03 53.4 °F 42.3 °F 29.75 in Calm   3.0 mph 66% 0.00 in 422.00 W/m2
16:08 53.6 °F 41.7 °F 29.75 in Calm   2.0 mph 64% 0.00 in 575.00 W/m2
16:13 53.8 °F 42.3 °F 29.75 in Calm   4.0 mph 65% 0.00 in 555.00 W/m2
16:18 54.0 °F 42.5 °F 29.76 in Calm   1.0 mph 65% 0.00 in 309.00 W/m2
16:23 54.2 °F 42.7 °F 29.75 in Calm     65% 0.00 in 278.00 W/m2
16:28 54.3 °F 42.4 °F 29.75 in West 1.0 mph 2.0 mph 64% 0.00 in 253.00 W/m2
16:33 54.3 °F 42.4 °F 29.75 in Calm   2.0 mph 64% 0.00 in 213.00 W/m2
16:38 54.3 °F 42.4 °F 29.75 in Calm     64% 0.00 in 218.00 W/m2
16:43 54.2 °F 42.3 °F 29.75 in Calm     64% 0.00 in 206.00 W/m2
16:48 54.1 °F 42.6 °F 29.75 in Calm     65% 0.00 in 181.00 W/m2
16:53 54.0 °F 42.1 °F 29.75 in Calm     64% 0.00 in 171.00 W/m2
16:58 53.8 °F 41.9 °F 29.75 in Calm     64% 0.00 in 218.00 W/m2
17:03 53.6 °F 42.5 °F 29.75 in Calm     66% 0.00 in 158.00 W/m2
17:08 53.5 °F 42.4 °F 29.75 in Calm     66% 0.00 in 155.00 W/m2
17:13 53.5 °F 42.8 °F 29.75 in Calm     67% 0.00 in 176.00 W/m2
17:18 53.5 °F 43.2 °F 29.76 in Calm     68% 0.00 in 158.00 W/m2
17:23 53.5 °F 43.2 °F 29.76 in Calm   3.0 mph 68% 0.00 in 127.00 W/m2
17:28 53.5 °F 43.6 °F 29.76 in Calm     69% 0.00 in 135.00 W/m2
17:33 53.5 °F 43.6 °F 29.75 in Calm     69% 0.00 in 144.00 W/m2
17:38 53.4 °F 43.1 °F 29.75 in Calm     68% 0.00 in 134.00 W/m2
17:43 53.3 °F 43.0 °F 29.75 in Calm     68% 0.00 in 141.00 W/m2
17:48 53.3 °F 43.4 °F 29.75 in Calm     69% 0.00 in 158.00 W/m2
17:53 53.3 °F 43.4 °F 29.76 in Calm     69% 0.00 in 102.00 W/m2
17:58 53.2 °F 43.3 °F 29.75 in Calm     69% 0.00 in 86.00 W/m2
18:03 53.2 °F 43.7 °F 29.75 in Calm     70% 0.00 in 63.00 W/m2
18:08 53.1 °F 43.6 °F 29.75 in Calm     70% 0.00 in 53.00 W/m2
18:13 53.0 °F 43.9 °F 29.75 in Calm     71% 0.00 in 58.00 W/m2
18:18 52.8 °F 43.7 °F 29.74 in East 2.0 mph 5.0 mph 71% 0.00 in 67.00 W/m2
18:23 52.6 °F 43.8 °F 29.74 in Calm     72% 0.00 in 51.00 W/m2
18:28 52.5 °F 44.1 °F 29.74 in Calm     73% 0.00 in 42.00 W/m2
18:33 52.4 °F 44.0 °F 29.74 in Calm   8.0 mph 73% 0.00 in 44.00 W/m2
18:38 52.2 °F 43.5 °F 29.74 in Calm     72% 0.00 in 33.00 W/m2
18:43 52.1 °F 43.4 °F 29.74 in North 1.0 mph 4.0 mph 72% 0.00 in 26.00 W/m2
18:48 51.9 °F 43.2 °F 29.74 in Calm     72% 0.00 in 21.00 W/m2
18:53 51.8 °F 43.4 °F 29.74 in Calm     73% 0.00 in 19.00 W/m2
18:58 51.8 °F 44.8 °F 29.74 in Calm     77% 0.00 in 18.00 W/m2
19:03 51.8 °F 43.8 °F 29.74 in Calm     74% 0.00 in 16.00 W/m2
19:08 51.8 °F 43.8 °F 29.74 in Calm     74% 0.00 in 14.00 W/m2
19:13 51.8 °F 44.1 °F 29.74 in Calm     75% 0.00 in 12.00 W/m2
19:18 51.8 °F 44.5 °F 29.75 in Calm     76% 0.00 in 11.00 W/m2
19:23 51.7 °F 44.4 °F 29.75 in NNE 2.0 mph 2.0 mph 76% 0.00 in 9.00 W/m2
19:25 51.7 °F 44.4 °F 29.75 in Calm   2.0 mph 76% 0.00 in 9.00 W/m2
19:30 51.5 °F 44.2 °F 29.76 in Calm     76% 0.00 in 7.00 W/m2
19:35 51.5 °F 44.5 °F 29.76 in Calm     77% 0.00 in 5.00 W/m2
19:40 51.4 °F 44.4 °F 29.76 in Calm     77% 0.00 in 0.00 W/m2
19:45 51.3 °F 44.7 °F 29.76 in Calm     78% 0.00 in 0.00 W/m2
19:50 51.2 °F 44.9 °F 29.76 in Calm     79% 0.00 in 0.00 W/m2
19:56 51.2 °F 44.9 °F 29.76 in Calm     79% 0.00 in 0.00 W/m2
20:00 51.1 °F 45.2 °F 29.76 in Calm     80% 0.00 in 0.00 W/m2
20:06 51.0 °F 45.4 °F 29.76 in Calm     81% 0.00 in 0.00 W/m2
20:11 50.8 °F 45.5 °F 29.76 in Calm     82% 0.00 in 0.00 W/m2
20:16 50.7 °F 45.4 °F 29.76 in Calm     82% 0.00 in 0.00 W/m2
20:21 50.5 °F 45.5 °F 29.76 in Calm     83% 0.07 in 0.00 W/m2
20:26 50.4 °F 45.4 °F 29.76 in Calm     83% 0.07 in 0.00 W/m2
20:31 50.3 °F 45.7 °F 29.77 in Calm     84% 0.05 in 0.00 W/m2
20:36 49.9 °F 45.3 °F 29.77 in Calm     84% 0.00 in 0.00 W/m2
20:41 49.6 °F 45.3 °F 29.76 in Calm     85% 0.00 in 0.00 W/m2
20:46 49.5 °F 45.2 °F 29.76 in Calm     85% 0.00 in 0.00 W/m2
20:51 49.4 °F 45.4 °F 29.76 in Calm     86% 0.00 in 0.00 W/m2
20:56 49.2 °F 45.2 °F 29.76 in Calm     86% 0.00 in 0.00 W/m2
21:02 49.0 °F 45.0 °F 29.76 in Calm     86% 0.00 in 0.00 W/m2
21:07 48.9 °F 44.9 °F 29.76 in Calm     86% 0.00 in 0.00 W/m2
21:12 48.8 °F 45.1 °F 29.76 in Calm     87% 0.00 in 0.00 W/m2
21:17 48.8 °F 45.1 °F 29.76 in Calm     87% 0.00 in 0.00 W/m2
21:22 48.7 °F 45.0 °F 29.76 in Calm     87% 0.00 in 0.00 W/m2
21:27 48.7 °F 45.0 °F 29.76 in Calm     87% 0.00 in 0.00 W/m2
21:32 48.7 °F 45.0 °F 29.76 in Calm     87% 0.00 in 0.00 W/m2
21:37 48.6 °F 44.9 °F 29.75 in Calm     87% 0.00 in 0.00 W/m2
21:42 48.6 °F 45.2 °F 29.75 in Calm     88% 0.00 in 0.00 W/m2
21:47 48.5 °F 45.1 °F 29.75 in Calm     88% 0.00 in 0.00 W/m2
21:52 48.5 °F 45.1 °F 29.75 in Calm     88% 0.00 in 0.00 W/m2
21:57 48.4 °F 45.0 °F 29.75 in Calm     88% 0.00 in 0.00 W/m2
22:02 48.3 °F 44.9 °F 29.75 in Calm     88% 0.00 in 0.00 W/m2
22:07 48.2 °F 44.8 °F 29.75 in Calm     88% 0.00 in 0.00 W/m2
22:12 48.1 °F 44.7 °F 29.75 in Calm     88% 0.00 in 0.00 W/m2
22:17 48.0 °F 44.6 °F 29.74 in Calm     88% 0.00 in 0.00 W/m2
22:22 48.0 °F 44.6 °F 29.74 in NNE 3.0 mph 4.0 mph 88% 0.00 in 0.00 W/m2
22:27 47.9 °F 44.5 °F 29.74 in Calm     88% 0.00 in 0.00 W/m2
22:32 47.8 °F 44.4 °F 29.75 in Calm     88% 0.00 in 0.00 W/m2
22:37 47.7 °F 44.3 °F 29.74 in North 5.0 mph 5.0 mph 88% 0.00 in 0.00 W/m2
22:42 47.6 °F 44.2 °F 29.74 in Calm   5.0 mph 88% 0.00 in 0.00 W/m2
22:47 47.5 °F 44.1 °F 29.74 in Calm   7.0 mph 88% 0.00 in 0.00 W/m2
22:52 47.4 °F 44.0 °F 29.74 in Calm     88% 0.00 in 0.00 W/m2
22:57 47.4 °F 44.0 °F 29.73 in Calm     88% 0.00 in 0.00 W/m2
23:02 47.3 °F 43.9 °F 29.73 in Calm   4.0 mph 88% 0.00 in 0.00 W/m2
23:07 47.2 °F 43.8 °F 29.73 in North 5.0 mph 7.0 mph 88% 0.00 in 0.00 W/m2
23:12 47.1 °F 44.0 °F 29.73 in North 5.0 mph 7.0 mph 89% 0.00 in 0.00 W/m2
23:17 47.0 °F 43.9 °F 29.73 in Calm     89% 0.00 in 0.00 W/m2
23:22 47.0 °F 43.9 °F 29.72 in North 2.0 mph 6.0 mph 89% 0.00 in 0.00 W/m2
23:27 47.0 °F 43.9 °F 29.72 in NNW 3.0 mph 7.0 mph 89% 0.00 in 0.00 W/m2
23:32 47.0 °F 43.9 °F 29.73 in Calm   4.0 mph 89% 0.00 in 0.00 W/m2
23:37 47.0 °F 43.9 °F 29.73 in NNW 2.0 mph 6.0 mph 89% 0.00 in 0.00 W/m2
23:42 47.0 °F 43.9 °F 29.73 in NNW 5.0 mph 5.0 mph 89% 0.00 in 0.00 W/m2
23:47 47.0 °F 43.9 °F 29.72 in NNW 6.0 mph 6.0 mph 89% 0.00 in 0.00 W/m2
23:52 47.0 °F 43.9 °F 29.72 in Calm   4.0 mph 89% 0.00 in 0.00 W/m2
23:57 47.1 °F 44.0 °F 29.72 in Calm   3.0 mph 89% 0.00 in 0.00 W/m2
Foresthill Weather
 WU-history PHP script courtesy of   Juneau County Weather.
powered by Cumulus v1.9.3 (1059)
Ambient Weather VWS v14.00
Top Contact Website Map Copyright © 2007 - 2018 Foresthillweather.com Never base important decisions on this or any weather information obtained from the Internet